SCP
-0 -0 0 0 0 0 0 0 -0 -0 -0 -0 -0 -0 -0 -0 0 0 0 -0 -0 0 0 0 0 0 0 0 0 0 0 0 0 0 0 0 0 0 0 0 0 0 0 0 0 0 0 0 0
-0 0 0 0 0 0 0 -0 -0 -0 0 -0 -0 -0 -0 -0 -0 0 0 -0 -0 0 -0 0 0 0 0 0 0 0 0 0 0 0 0 0 0 0 0 0 0 0 0 0 0 0 0 0 0
0 -0 0 0 0 0 0 -0 -0 0 -0 -0 -0 -0 0 -0 -0 0 -0 0 0 0 0 0 0 0 0 0 0 0 0 0 0 0 0 0 0 0 0 0 0 0 0 0 0 0 0 0 0
0 -0 0 0 0 -0 0 -0 -0 -0 -0 -0 -0 -0 -0 -0 0 0 0 0 -0 -0 -0 -0 0 -0 0 0 0 0 0 0 0 0 0 0 0 0 0 0 0 0 0 0 0 0 0 0 0
0 -0 0 0 -0 -0 -0 0 -0 -0 0 -0 -0 0 0 -0 -0 -0 0 -0 -0 -0 -0 -0 0 0 0 0 0 0 0 0 0 0 0 0 0 0 0 0 0 0 0 0 0 0 0 0 0
0 0 0 0 -0 0 0 -0 -0 -0 0 -0 -0 -0 -0 0 0 0 0 0 -0 0 0 0 0 0 0 0 0 0 0 0 0 0 0 0 0 0 0 0 0 0 0 0 0 0 0 0 0
0 0 0 0 -0 -0 0 -0 0 0 -0 0 0 0 0 0 -0 -0 0 0 0 0 0 0 0 0 0 0 0 0 0 0 0 0 0 0 0 0 0 0 0 0 -0 0 0 0 0 0 0
-0 0 0 -0 -0 0 0 0 -0 -0 0 -0 -0 0 0 -0 -0 -0 0 0 0 0 0 0 0 0 0 0 0 0 0 0 0 0 0 0 0 0 0 0 0 0 0 0 0 0 0 0 0
0 0 0 -0 -0 0 0 0 -0 0 -0 0 -0 0 0 -0 -0 0 0 0 0 0 0 0 0 0 0 0 0 0 0 0 0 0 0 0 0 0 0 0 0 0 -0 0 0 0 0 0 0
0 0 -0 -0 -0 0 -0 0 0 0 -0 -0 -0 0 -0 -0 0 0 0 0 0 0 0 0 0 0 0 0 0 0 0 0 0 0 0 0 0 0 0 0 0 0 0 0 0 0 0 0 0
0 0 -0 -0 0 -0 -0 -0 0 -0 -0 -0 -0 0 0 0 0 0 0 0 0 0 0 0 0 0 0 0 0 0 0 0 0 0 0 0 0 0 0 0 0 -0 0 0 0 0 0 0 0
0 0 -0 0 -0 0 0 -0 -0 0 0 0 0 0 0 0 0 0 0 0 0 0 0 0 0 0 0 0 0 0 0 0 0 0 0 0 0 0 0 0 0 0 0 0 0 0 0 0 0
0 -0 -0 0 -0 0 -0 0 0 0 -0 0 0 0 0 0 0 0 0 0 0 0 0 0 0 0 0 0 0 0 0 0 0 0 0 0 0 0 0 0 0 0 0 0 0 0 0 0 0
0 -0 -0 0 0 -0 -0 0 0 0 0 0 0 0 0 0 0 0 0 0 0 0 0 0 0 0 0 0 0 0 0 0 0 0 0 0 0 0 0 0 0 0 0 0 -0 0 0 0 0
-0 0 0 0 0 0 -0 -0 -0 -0 -0 0 0 0 0 0 0 0 0 0 0 0 0 0 0 0 0 0 0 0 0 0 0 0 0 0 0 0 0 0 0 0 0 -0 -0 0 0 0 0
-0 -0 -0 0 0 0 0 0 -1 -0 -0 -0 -0 0 0 0 0 0 0 0 0 0 0 0 0 0 0 0 0 0 0 0 0 0 0 0 0 0 0 0 0 0 0 -0 0 0 0 0 0
0 0 0 -0 0 0 0 0 -0 -0 0 0 0 0 0 0 0 0 0 0 0 0 0 0 0 0 0 0 0 0 0 0 0 0 0 0 0 0 0 0 0 0 0 -0 0 0 0 0 0
0 0 0 0 0 0 0 0 0 0 0 0 0 0 0 0 0 0 0 0 0 0 0 0 0 0 0 0 0 0 0 0 0 0 0 0 0 0 0 0 0 0 0 -0 0 0 0 0 0
0 0 0 0 0 0 -0 -0 -0 -0 0 0 0 0 0 -0 0 0 0 0 0 0 0 0 0 0 0 0 0 0 0 0 0 0 0 0 0 0 0 0 0 0 0 -0 0 0 0 0 0
0 0 0 0 0 0 0 0 -0 -0 0 0 0 0 0 0 0 0 0 0 0 0 0 0 0 0 0 0 0 0 0 0 0 0 0 0 0 0 0 0 0 0 0 0 0 0 0 0 0
0 0 0 0 -0 0 0 -0 -0 0 0 0 0 0 0 -0 -0 0 0 0 0 0 0 0 0 0 0 0 0 0 0 0 0 0 0 0 0 0 0 0 0 0 0 0 0 0 0 0 0
0 0 0 0 -0 -0 -0 -0 0 -0 -0 0 0 0 0 0 0 0 0 0 0 0 0 0 0 0 0 0 0 0 0 0 0 0 0 0 0 0 0 0 0 0 0 0 0 0 0 0 0
0 0 0 0 0 0 -0 0 0 -0 -0 0 0 0 0 0 0 0 0 0 0 0 0 0 0 0 0 0 0 0 0 0 0 0 0 0 0 0 0 0 0 0 0 0 0 0 0 0 0
0 0 0 0 0 0 0 0 0 -0 0 0 0 0 0 0 0 0 0 0 0 0 0 0 0 0 0 0 0 0 0 0 0 0 0 0 0 0 0 0 0 0 0 0 0 0 0 0 0
0 0 0 0 0 0 0 0 0 0 0 0 0 0 0 0 0 0 0 0 0 0 0 0 0 0 0 0 0 0 0 0 0 0 0 0 0 0 0 0 0 0 0 0 0 0 0 0 0
0 0 0 0 0 0 0 0 0 0 0 0 -0 0 0 0 0 0 0 0 0 0 0 0 0 0 0 0 0 0 0 0 0 0 0 0 0 0 0 0 0 0 0 0 0 0 0 0 0
0 0 0 0 0 0 0 0 -0 0 0 0 0 0 0 0 0 0 0 0 0 0 0 0 0 0 0 0 0 0 0 0 0 0 0 0 0 0 0 0 0 0 0 0 0 0 0 0 0
-0 0 0 0 0 0 -0 0 0 0 0 0 0 0 0 0 0 0 0 0 0 0 0 0 0 0 0 0 0 0 0 0 0 0 0 0 0 0 0 0 0 0 0 0 0 0 0 0 0
0 0 0 0 0 0 0 0 0 0 0 0 0 0 0 0 0 0 0 0 0 0 0 0 0 0 0 0 0 0 0 0 0 0 0 0 0 0 0 0 0 0 0 0 0 0 0 0 0
0 0 0 0 0 0 0 0 0 0 0 0 0 0 0 0 -0 0 0 0 0 0 0 0 0 0 0 0 0 0 0 0 0 0 0 0 0 0 0 0 0 0 0 0 0 0 0 0 0
Wind_Speed_500mb
20 26 31 12 7 1 6 17 30 24 29 60 66 49 35 42 13 19 30 26 13 7 15 29 22 18 16 14 13 13 14 15 15 17 17 17 18 20 22 23 24 26 27 26 25 25 26 28 28
31 46 28 14 3 2 4 21 29 30 49 61 63 47 53 40 46 35 28 8 13 10 15 34 22 20 18 16 15 16 16 16 15 15 16 18 20 22 24 25 25 26 28 30 31 31 28 26 29
32 23 16 10 4 7 9 14 25 47 57 53 30 43 19 27 29 23 22 14 4 11 14 17 23 27 21 15 14 15 15 15 15 16 19 21 24 26 27 28 30 32 34 31 30 33 32 31 30
25 43 18 7 19 18 13 21 55 56 60 60 39 24 49 37 30 32 23 20 22 25 26 22 26 29 27 19 20 20 20 18 17 17 19 23 24 25 28 30 31 33 34 33 30 29 28 26 26
67 37 13 18 17 15 27 48 58 47 38 52 40 25 38 27 31 29 24 29 35 32 25 27 24 25 23 17 23 25 20 15 15 16 18 19 22 29 35 36 37 46 42 34 29 27 26 24 24
23 19 7 7 25 19 23 70 80 59 47 44 32 38 22 28 29 24 33 39 43 37 22 29 24 21 21 20 29 26 21 15 13 15 18 21 23 33 37 44 50 50 40 32 28 29 28 27 26
28 17 12 20 14 9 20 63 42 43 43 11 28 23 31 18 22 32 25 20 18 15 29 33 23 20 18 25 30 29 29 13 11 12 15 24 18 31 39 39 45 42 46 43 40 33 31 25 20
32 10 11 10 19 0 28 33 54 40 14 49 39 5 15 20 36 24 18 12 19 17 8 2 24 30 10 24 28 28 28 28 31 19 2 19 20 22 18 31 38 44 44 43 38 38 26 23 18
24 8 4 9 9 9 46 24 37 48 38 15 19 34 26 28 26 37 30 27 19 17 17 14 19 26 12 30 24 24 31 28 31 31 7 10 14 14 23 22 30 40 34 35 30 31 38 31 16
17 10 25 41 27 25 46 49 49 38 44 34 32 35 31 21 18 22 25 25 21 15 15 18 16 18 29 24 19 17 19 25 31 30 15 8 14 5 12 15 23 26 26 29 27 27 34 38 26
6 9 16 20 45 58 43 46 48 43 26 41 41 37 28 29 29 26 22 18 14 12 13 17 12 17 15 11 2 6 13 18 25 34 17 12 21 10 10 23 23 31 35 27 30 28 37 32 22
20 38 42 40 62 52 33 46 38 42 30 41 38 37 32 22 19 17 12 7 8 10 10 15 15 16 17 11 4 7 17 14 22 32 28 23 29 24 17 23 30 35 25 34 27 28 25 26 25
18 32 40 37 57 53 48 34 29 39 39 38 36 34 24 24 25 20 9 11 14 16 11 20 20 12 9 10 16 10 17 15 19 27 33 30 34 25 22 26 36 23 24 26 30 36 23 21 18
17 27 35 6 29 39 35 39 27 34 36 36 40 31 34 29 28 19 4 8 16 23 17 12 22 10 15 19 10 9 16 8 15 22 29 27 34 21 21 27 26 25 26 30 40 42 23 12 16
45 16 19 13 29 21 47 19 20 43 41 38 40 41 27 38 23 11 7 4 14 23 21 9 14 16 17 16 12 17 13 12 10 18 27 21 31 20 21 28 24 25 29 39 37 32 11 12 14
14 13 11 14 23 14 10 6 39 46 42 43 40 45 36 32 24 15 3 2 8 20 23 17 6 5 24 19 22 20 13 14 6 19 32 26 29 25 17 26 28 20 28 38 45 38 19 12 24
13 7 12 23 28 13 13 8 44 50 46 47 41 42 42 39 31 19 13 8 7 15 22 21 17 16 22 17 8 13 16 11 10 23 34 34 29 32 23 20 30 17 25 37 52 36 20 22 29
13 13 21 22 15 14 26 16 39 55 47 46 53 45 47 45 42 28 30 19 4 14 21 22 18 15 18 9 10 5 6 7 10 26 36 38 36 33 33 29 34 14 32 42 56 35 13 25 34
16 18 27 29 24 5 3 16 38 52 47 42 51 57 52 56 51 42 35 20 5 8 17 22 18 7 8 7 9 5 6 10 10 21 25 35 37 36 37 33 31 19 34 45 45 36 33 29 31
5 7 10 14 8 9 14 7 31 49 46 41 63 53 50 47 60 50 40 22 12 7 15 19 18 8 3 7 11 11 10 6 8 17 22 33 31 39 43 39 32 29 32 47 44 39 37 35 33
6 6 12 22 9 7 10 18 37 34 44 47 47 46 47 66 64 51 47 33 22 17 15 14 14 8 7 7 6 8 11 3 6 11 20 26 27 33 39 43 28 30 32 42 45 46 41 40 37
5 4 10 34 15 7 9 11 5 27 28 38 54 56 48 64 62 53 53 45 30 27 15 13 13 12 4 7 10 18 10 8 1 11 10 13 19 25 32 42 29 30 30 35 36 45 37 32 33
7 16 25 19 11 7 3 5 29 39 17 23 44 61 63 71 70 63 62 49 37 33 21 12 11 11 6 4 9 8 9 15 10 8 6 10 13 18 28 39 29 26 34 28 32 37 47 34 27
9 11 7 8 8 6 13 12 10 13 22 22 37 57 65 70 67 64 58 54 45 38 26 15 9 13 11 6 0 1 2 8 11 6 2 3 15 19 29 37 26 23 24 28 28 26 33 38 30
13 14 8 10 3 10 3 10 17 23 11 12 32 56 48 65 67 63 68 65 58 45 27 17 14 10 11 8 4 7 1 6 1 7 12 14 7 17 31 33 31 22 19 25 22 21 25 32 33
4 12 10 8 5 9 5 7 7 17 22 32 20 48 45 47 63 69 73 66 60 38 29 21 19 14 13 10 9 12 6 7 10 12 19 9 13 12 21 30 29 27 16 21 27 28 21 28 29
2 11 9 5 8 8 6 11 14 34 38 21 21 5 52 49 63 70 67 65 47 35 37 27 26 19 14 13 15 14 11 7 10 11 9 12 15 18 21 19 25 29 20 20 24 26 27 27 27
15 3 21 16 8 8 11 7 10 14 25 23 13 22 8 56 74 69 68 61 52 39 40 34 27 21 16 18 15 13 13 16 14 19 18 17 21 25 17 17 20 24 21 25 26 27 26 27 32
13 9 7 7 5 1 4 11 12 15 12 12 16 5 42 85 73 79 72 61 54 40 40 39 31 20 18 18 16 16 19 23 19 22 23 22 24 26 23 20 19 22 25 23 28 28 28 30 33
12 18 15 9 8 5 3 12 13 9 19 10 20 30 53 86 31 52 65 68 56 42 41 40 30 13 10 17 18 20 23 24 24 23 23 25 31 30 26 27 25 23 25 28 31 35 35 34 36
Wind_Direction_500mb
26 10 348 318 23 44 66 73 92 82 69 75 72 78 74 58 73 118 97 105 82 48 70 18 356 341 329 328 334 333 332 338 344 345 344 348 348 347 347 345 345 344 340 336 330 317 307 297 288
50 30 4 307 351 254 84 101 103 109 113 95 83 82 67 85 91 110 114 134 172 103 344 337 358 348 329 323 333 331 334 335 335 332 336 342 344 343 340 335 332 330 324 318 315 313 310 304 297
72 50 24 7 21 125 114 117 125 126 104 95 74 64 73 98 88 112 140 148 272 14 51 33 29 28 14 351 343 336 333 326 327 334 337 340 339 339 337 333 330 328 325 323 320 311 306 306 303
70 73 46 30 296 52 96 108 110 95 88 94 99 66 78 100 94 92 77 79 55 32 38 39 23 35 21 14 11 1 344 331 332 341 341 344 348 351 346 339 338 333 327 326 325 325 326 318 308
57 61 37 334 291 1 50 72 81 78 78 79 83 103 104 106 99 90 73 51 44 52 53 30 25 27 21 18 15 1 341 338 339 342 349 2 3 1 355 348 349 343 333 322 322 321 323 326 330
65 68 40 343 338 344 75 84 89 84 83 93 108 118 122 117 113 101 102 68 57 50 46 34 22 17 11 27 20 17 6 356 1 24 33 20 4 5 359 358 2 357 3 360 344 330 321 317 314
115 109 194 264 251 272 89 84 99 106 127 144 123 114 122 122 117 109 98 85 56 57 49 35 27 14 11 22 31 22 16 23 44 52 42 19 4 6 359 356 360 5 18 19 23 28 28 14 353
124 116 141 214 233 80 104 96 117 105 72 132 135 167 133 125 99 88 73 65 69 45 356 34 32 18 11 24 32 11 19 12 14 7 339 47 30 17 6 360 355 7 12 8 13 13 4 10 4
125 88 119 277 198 142 114 119 105 118 151 193 144 125 106 110 103 79 64 52 40 45 12 357 150 62 119 45 51 35 31 4 353 7 6 64 24 1 32 11 10 4 10 360 357 8 345 340 319
116 131 174 213 199 120 114 112 142 139 134 128 121 112 103 85 61 80 65 53 35 40 15 351 140 119 103 66 61 55 15 1 348 5 53 62 22 42 38 10 12 348 332 334 351 356 345 343 25
165 176 99 144 121 111 119 122 130 129 129 146 141 117 104 106 99 92 87 62 43 46 20 353 30 161 128 129 53 317 16 356 349 9 57 24 34 40 28 27 353 335 342 350 357 345 343 344 10
84 68 81 84 107 99 107 142 115 119 141 130 123 122 123 117 107 99 102 87 24 47 13 355 27 127 145 147 158 36 34 30 2 2 21 24 24 28 47 24 350 346 27 12 354 346 4 3 358
20 84 72 90 119 121 122 115 114 113 113 120 126 126 123 125 128 112 87 28 25 41 48 13 33 56 127 161 79 71 48 40 3 360 12 15 22 48 35 16 -0 43 11 2 340 334 339 355 360
1 26 28 62 112 127 121 128 132 142 139 143 146 136 138 137 139 132 131 32 26 38 53 33 12 37 89 90 73 80 76 44 3 4 7 14 10 41 35 16 19 21 348 352 338 331 309 337 348
45 22 7 329 136 134 144 167 139 155 155 161 155 151 150 154 167 192 171 64 28 32 40 77 16 31 52 119 63 46 73 39 21 349 357 11 6 46 24 12 17 16 350 344 347 352 311 268 323
55 67 353 284 142 179 149 188 149 166 174 177 170 166 165 177 189 205 211 136 40 27 23 44 60 53 66 57 59 32 58 36 332 338 351 9 7 28 14 9 12 4 352 343 349 354 1 347 338
3 102 233 295 225 167 188 180 165 178 190 175 181 174 174 170 177 188 191 225 20 21 19 28 42 88 85 61 74 17 41 31 343 340 354 12 8 14 21 359 7 350 344 351 356 2 6 353 343
173 166 222 214 191 186 193 209 164 180 200 177 182 189 184 186 194 175 189 206 314 10 10 25 37 89 102 87 121 102 35 24 333 343 350 5 8 13 21 21 14 6 356 356 351 3 14 339 353
173 195 189 213 230 188 333 163 174 178 205 196 182 194 203 196 194 172 191 223 263 349 358 9 30 91 97 162 185 171 178 34 343 342 345 355 8 15 17 24 27 11 6 353 360 12 23 9 5
23 40 288 323 196 95 21 196 185 181 200 200 176 198 206 194 179 177 189 203 232 298 322 354 11 49 141 127 93 122 101 60 7 343 348 348 5 11 11 11 21 9 10 2 10 18 23 24 27
267 272 54 71 16 66 14 326 167 194 193 198 191 200 200 183 179 180 189 194 218 228 287 327 353 23 99 153 119 145 125 186 325 315 335 358 347 359 2 2 9 3 11 11 25 26 20 22 26
253 208 84 43 56 307 31 309 338 173 198 202 198 198 195 186 186 188 187 189 207 223 251 301 336 352 67 209 143 172 160 186 91 302 352 351 321 343 351 352 359 11 11 19 19 23 18 20 14
233 74 99 94 121 79 108 114 336 334 219 208 198 200 202 191 190 189 187 192 198 213 240 279 319 338 359 174 205 226 216 215 243 53 43 0 337 332 342 344 353 16 20 16 12 17 19 15 19
67 105 33 65 99 19 235 121 238 213 235 227 201 206 205 192 191 189 191 188 196 204 231 254 304 321 343 346 266 280 67 108 155 79 8 165 356 337 334 337 353 10 21 15 5 8 13 11 2
45 48 352 1 336 243 99 61 234 269 247 30 190 198 201 188 190 186 189 184 188 199 217 238 268 301 321 323 309 301 295 131 168 240 271 271 237 331 323 337 349 1 6 353 350 355 2 358 6
112 147 147 240 312 262 189 216 229 280 46 33 360 199 182 174 185 186 186 184 184 198 216 231 247 268 294 296 286 286 292 228 257 273 295 247 262 302 321 330 342 349 344 338 355 357 354 347 346
106 24 178 151 311 16 156 307 300 63 64 63 306 353 184 188 184 177 180 184 190 202 218 232 230 245 268 285 284 292 295 325 265 311 316 334 330 300 300 308 318 341 338 327 332 345 346 339 338
111 36 21 350 357 315 333 298 250 134 168 219 241 258 199 206 182 184 188 184 198 203 215 225 222 241 265 274 295 301 301 309 311 315 326 320 322 332 312 324 314 315 336 323 321 327 334 333 331
25 42 84 191 215 158 275 265 231 190 171 156 44 59 20 356 179 184 179 186 188 198 217 216 212 228 250 281 292 286 286 298 297 296 309 309 314 317 311 308 315 313 304 305 307 318 322 324 322
143 177 156 161 255 206 195 293 23 112 123 95 344 45 15 14 303 171 183 185 191 201 211 215 210 225 271 280 276 282 293 310 320 320 317 304 303 310 305 311 308 311 304 306 293 293 299 302 313
Wind_Speed_850mb
20 26 31 12 7 1 6 17 30 24 29 60 66 49 35 42 13 19 30 26 13 7 15 29 22 18 16 14 13 13 14 15 15 17 17 17 18 20 22 23 24 26 27 26 25 25 26 28 28
31 46 28 14 3 2 4 21 29 30 49 61 63 47 53 40 46 35 28 8 13 10 15 34 22 20 18 16 15 16 16 16 15 15 16 18 20 22 24 25 25 26 28 30 31 31 28 26 29
32 23 16 10 4 7 9 14 25 47 57 53 30 43 19 27 29 23 22 14 4 11 14 17 23 27 21 15 14 15 15 15 15 16 19 21 24 26 27 28 30 32 34 31 30 33 32 31 30
25 43 18 7 19 18 13 21 55 56 60 60 39 24 49 37 30 32 23 20 22 25 26 22 26 29 27 19 20 20 20 18 17 17 19 23 24 25 28 30 31 33 34 33 30 29 28 26 26
67 37 13 18 17 15 27 48 58 47 38 52 40 25 38 27 31 29 24 29 35 32 25 27 24 25 23 17 23 25 20 15 15 16 18 19 22 29 35 36 37 46 42 34 29 27 26 24 24
23 19 7 7 25 19 23 70 80 59 47 44 32 38 22 28 29 24 33 39 43 37 22 29 24 21 21 20 29 26 21 15 13 15 18 21 23 33 37 44 50 50 40 32 28 29 28 27 26
28 17 12 20 14 9 20 63 42 43 43 11 28 23 31 18 22 32 25 20 18 15 29 33 23 20 18 25 30 29 29 13 11 12 15 24 18 31 39 39 45 42 46 43 40 33 31 25 20
32 10 11 10 19 0 28 33 54 40 14 49 39 5 15 20 36 24 18 12 19 17 8 2 24 30 10 24 28 28 28 28 31 19 2 19 20 22 18 31 38 44 44 43 38 38 26 23 18
24 8 4 9 9 9 46 24 37 48 38 15 19 34 26 28 26 37 30 27 19 17 17 14 19 26 12 30 24 24 31 28 31 31 7 10 14 14 23 22 30 40 34 35 30 31 38 31 16
17 10 25 41 27 25 46 49 49 38 44 34 32 35 31 21 18 22 25 25 21 15 15 18 16 18 29 24 19 17 19 25 31 30 15 8 14 5 12 15 23 26 26 29 27 27 34 38 26
6 9 16 20 45 58 43 46 48 43 26 41 41 37 28 29 29 26 22 18 14 12 13 17 12 17 15 11 2 6 13 18 25 34 17 12 21 10 10 23 23 31 35 27 30 28 37 32 22
20 38 42 40 62 52 33 46 38 42 30 41 38 37 32 22 19 17 12 7 8 10 10 15 15 16 17 11 4 7 17 14 22 32 28 23 29 24 17 23 30 35 25 34 27 28 25 26 25
18 32 40 37 57 53 48 34 29 39 39 38 36 34 24 24 25 20 9 11 14 16 11 20 20 12 9 10 16 10 17 15 19 27 33 30 34 25 22 26 36 23 24 26 30 36 23 21 18
17 27 35 6 29 39 35 39 27 34 36 36 40 31 34 29 28 19 4 8 16 23 17 12 22 10 15 19 10 9 16 8 15 22 29 27 34 21 21 27 26 25 26 30 40 42 23 12 16
45 16 19 13 29 21 47 19 20 43 41 38 40 41 27 38 23 11 7 4 14 23 21 9 14 16 17 16 12 17 13 12 10 18 27 21 31 20 21 28 24 25 29 39 37 32 11 12 14
14 13 11 14 23 14 10 6 39 46 42 43 40 45 36 32 24 15 3 2 8 20 23 17 6 5 24 19 22 20 13 14 6 19 32 26 29 25 17 26 28 20 28 38 45 38 19 12 24
13 7 12 23 28 13 13 8 44 50 46 47 41 42 42 39 31 19 13 8 7 15 22 21 17 16 22 17 8 13 16 11 10 23 34 34 29 32 23 20 30 17 25 37 52 36 20 22 29
13 13 21 22 15 14 26 16 39 55 47 46 53 45 47 45 42 28 30 19 4 14 21 22 18 15 18 9 10 5 6 7 10 26 36 38 36 33 33 29 34 14 32 42 56 35 13 25 34
16 18 27 29 24 5 3 16 38 52 47 42 51 57 52 56 51 42 35 20 5 8 17 22 18 7 8 7 9 5 6 10 10 21 25 35 37 36 37 33 31 19 34 45 45 36 33 29 31
5 7 10 14 8 9 14 7 31 49 46 41 63 53 50 47 60 50 40 22 12 7 15 19 18 8 3 7 11 11 10 6 8 17 22 33 31 39 43 39 32 29 32 47 44 39 37 35 33
6 6 12 22 9 7 10 18 37 34 44 47 47 46 47 66 64 51 47 33 22 17 15 14 14 8 7 7 6 8 11 3 6 11 20 26 27 33 39 43 28 30 32 42 45 46 41 40 37
5 4 10 34 15 7 9 11 5 27 28 38 54 56 48 64 62 53 53 45 30 27 15 13 13 12 4 7 10 18 10 8 1 11 10 13 19 25 32 42 29 30 30 35 36 45 37 32 33
7 16 25 19 11 7 3 5 29 39 17 23 44 61 63 71 70 63 62 49 37 33 21 12 11 11 6 4 9 8 9 15 10 8 6 10 13 18 28 39 29 26 34 28 32 37 47 34 27
9 11 7 8 8 6 13 12 10 13 22 22 37 57 65 70 67 64 58 54 45 38 26 15 9 13 11 6 0 1 2 8 11 6 2 3 15 19 29 37 26 23 24 28 28 26 33 38 30
13 14 8 10 3 10 3 10 17 23 11 12 32 56 48 65 67 63 68 65 58 45 27 17 14 10 11 8 4 7 1 6 1 7 12 14 7 17 31 33 31 22 19 25 22 21 25 32 33
4 12 10 8 5 9 5 7 7 17 22 32 20 48 45 47 63 69 73 66 60 38 29 21 19 14 13 10 9 12 6 7 10 12 19 9 13 12 21 30 29 27 16 21 27 28 21 28 29
2 11 9 5 8 8 6 11 14 34 38 21 21 5 52 49 63 70 67 65 47 35 37 27 26 19 14 13 15 14 11 7 10 11 9 12 15 18 21 19 25 29 20 20 24 26 27 27 27
15 3 21 16 8 8 11 7 10 14 25 23 13 22 8 56 74 69 68 61 52 39 40 34 27 21 16 18 15 13 13 16 14 19 18 17 21 25 17 17 20 24 21 25 26 27 26 27 32
13 9 7 7 5 1 4 11 12 15 12 12 16 5 42 85 73 79 72 61 54 40 40 39 31 20 18 18 16 16 19 23 19 22 23 22 24 26 23 20 19 22 25 23 28 28 28 30 33
12 18 15 9 8 5 3 12 13 9 19 10 20 30 53 86 31 52 65 68 56 42 41 40 30 13 10 17 18 20 23 24 24 23 23 25 31 30 26 27 25 23 25 28 31 35 35 34 36
Wind_Direction_850mb
26 10 348 318 23 44 66 73 92 82 69 75 72 78 74 58 73 118 97 105 82 48 70 18 356 341 329 328 334 333 332 338 344 345 344 348 348 347 347 345 345 344 340 336 330 317 307 297 288
50 30 4 307 351 254 84 101 103 109 113 95 83 82 67 85 91 110 114 134 172 103 344 337 358 348 329 323 333 331 334 335 335 332 336 342 344 343 340 335 332 330 324 318 315 313 310 304 297
72 50 24 7 21 125 114 117 125 126 104 95 74 64 73 98 88 112 140 148 272 14 51 33 29 28 14 351 343 336 333 326 327 334 337 340 339 339 337 333 330 328 325 323 320 311 306 306 303
70 73 46 30 296 52 96 108 110 95 88 94 99 66 78 100 94 92 77 79 55 32 38 39 23 35 21 14 11 1 344 331 332 341 341 344 348 351 346 339 338 333 327 326 325 325 326 318 308
57 61 37 334 291 1 50 72 81 78 78 79 83 103 104 106 99 90 73 51 44 52 53 30 25 27 21 18 15 1 341 338 339 342 349 2 3 1 355 348 349 343 333 322 322 321 323 326 330
65 68 40 343 338 344 75 84 89 84 83 93 108 118 122 117 113 101 102 68 57 50 46 34 22 17 11 27 20 17 6 356 1 24 33 20 4 5 359 358 2 357 3 360 344 330 321 317 314
115 109 194 264 251 272 89 84 99 106 127 144 123 114 122 122 117 109 98 85 56 57 49 35 27 14 11 22 31 22 16 23 44 52 42 19 4 6 359 356 360 5 18 19 23 28 28 14 353
124 116 141 214 233 80 104 96 117 105 72 132 135 167 133 125 99 88 73 65 69 45 356 34 32 18 11 24 32 11 19 12 14 7 339 47 30 17 6 360 355 7 12 8 13 13 4 10 4
125 88 119 277 198 142 114 119 105 118 151 193 144 125 106 110 103 79 64 52 40 45 12 357 150 62 119 45 51 35 31 4 353 7 6 64 24 1 32 11 10 4 10 360 357 8 345 340 319
116 131 174 213 199 120 114 112 142 139 134 128 121 112 103 85 61 80 65 53 35 40 15 351 140 119 103 66 61 55 15 1 348 5 53 62 22 42 38 10 12 348 332 334 351 356 345 343 25
165 176 99 144 121 111 119 122 130 129 129 146 141 117 104 106 99 92 87 62 43 46 20 353 30 161 128 129 53 317 16 356 349 9 57 24 34 40 28 27 353 335 342 350 357 345 343 344 10
84 68 81 84 107 99 107 142 115 119 141 130 123 122 123 117 107 99 102 87 24 47 13 355 27 127 145 147 158 36 34 30 2 2 21 24 24 28 47 24 350 346 27 12 354 346 4 3 358
20 84 72 90 119 121 122 115 114 113 113 120 126 126 123 125 128 112 87 28 25 41 48 13 33 56 127 161 79 71 48 40 3 360 12 15 22 48 35 16 -0 43 11 2 340 334 339 355 360
1 26 28 62 112 127 121 128 132 142 139 143 146 136 138 137 139 132 131 32 26 38 53 33 12 37 89 90 73 80 76 44 3 4 7 14 10 41 35 16 19 21 348 352 338 331 309 337 348
45 22 7 329 136 134 144 167 139 155 155 161 155 151 150 154 167 192 171 64 28 32 40 77 16 31 52 119 63 46 73 39 21 349 357 11 6 46 24 12 17 16 350 344 347 352 311 268 323
55 67 353 284 142 179 149 188 149 166 174 177 170 166 165 177 189 205 211 136 40 27 23 44 60 53 66 57 59 32 58 36 332 338 351 9 7 28 14 9 12 4 352 343 349 354 1 347 338
3 102 233 295 225 167 188 180 165 178 190 175 181 174 174 170 177 188 191 225 20 21 19 28 42 88 85 61 74 17 41 31 343 340 354 12 8 14 21 359 7 350 344 351 356 2 6 353 343
173 166 222 214 191 186 193 209 164 180 200 177 182 189 184 186 194 175 189 206 314 10 10 25 37 89 102 87 121 102 35 24 333 343 350 5 8 13 21 21 14 6 356 356 351 3 14 339 353
173 195 189 213 230 188 333 163 174 178 205 196 182 194 203 196 194 172 191 223 263 349 358 9 30 91 97 162 185 171 178 34 343 342 345 355 8 15 17 24 27 11 6 353 360 12 23 9 5
23 40 288 323 196 95 21 196 185 181 200 200 176 198 206 194 179 177 189 203 232 298 322 354 11 49 141 127 93 122 101 60 7 343 348 348 5 11 11 11 21 9 10 2 10 18 23 24 27
267 272 54 71 16 66 14 326 167 194 193 198 191 200 200 183 179 180 189 194 218 228 287 327 353 23 99 153 119 145 125 186 325 315 335 358 347 359 2 2 9 3 11 11 25 26 20 22 26
253 208 84 43 56 307 31 309 338 173 198 202 198 198 195 186 186 188 187 189 207 223 251 301 336 352 67 209 143 172 160 186 91 302 352 351 321 343 351 352 359 11 11 19 19 23 18 20 14
233 74 99 94 121 79 108 114 336 334 219 208 198 200 202 191 190 189 187 192 198 213 240 279 319 338 359 174 205 226 216 215 243 53 43 0 337 332 342 344 353 16 20 16 12 17 19 15 19
67 105 33 65 99 19 235 121 238 213 235 227 201 206 205 192 191 189 191 188 196 204 231 254 304 321 343 346 266 280 67 108 155 79 8 165 356 337 334 337 353 10 21 15 5 8 13 11 2
45 48 352 1 336 243 99 61 234 269 247 30 190 198 201 188 190 186 189 184 188 199 217 238 268 301 321 323 309 301 295 131 168 240 271 271 237 331 323 337 349 1 6 353 350 355 2 358 6
112 147 147 240 312 262 189 216 229 280 46 33 360 199 182 174 185 186 186 184 184 198 216 231 247 268 294 296 286 286 292 228 257 273 295 247 262 302 321 330 342 349 344 338 355 357 354 347 346
106 24 178 151 311 16 156 307 300 63 64 63 306 353 184 188 184 177 180 184 190 202 218 232 230 245 268 285 284 292 295 325 265 311 316 334 330 300 300 308 318 341 338 327 332 345 346 339 338
111 36 21 350 357 315 333 298 250 134 168 219 241 258 199 206 182 184 188 184 198 203 215 225 222 241 265 274 295 301 301 309 311 315 326 320 322 332 312 324 314 315 336 323 321 327 334 333 331
25 42 84 191 215 158 275 265 231 190 171 156 44 59 20 356 179 184 179 186 188 198 217 216 212 228 250 281 292 286 286 298 297 296 309 309 314 317 311 308 315 313 304 305 307 318 322 324 322
143 177 156 161 255 206 195 293 23 112 123 95 344 45 15 14 303 171 183 185 191 201 211 215 210 225 271 280 276 282 293 310 320 320 317 304 303 310 305 311 308 311 304 306 293 293 299 302 313